Columbus, MS

5:09 AM CST on February 12, 2016 (GMT -0600)
Columbus Air Force Base

Weather History for KCBM - April, 2013

Change the Weather History Date:

Thursday, April 11, 2013

  Actual Average Record
Temperature  
Mean Temperature 63 °F -  
Max Temperature 75 °F 71 °F 86 °F (2001)
Min Temperature 50 °F 49 °F 39 °F (2003)
Degree Days  
Heating Degree Days 2    
Growing Degree Days 13 (Base 50)    
Moisture  
Dew Point 61 °F    
Average Humidity 90    
Maximum Humidity 100    
Minimum Humidity 72    
Precipitation  
Precipitation 1.21 in - - ()
Sea Level Pressure  
Sea Level Pressure 29.71 in    
Wind  
Wind Speed 11 mph (West)    
Max Wind Speed 25 mph    
Max Gust Speed 36 mph    
Visibility 7 miles    
Events Rain , Thunderstorm    
Averages and records for this station are not official NWS values.
T = Trace of Precipitation, MM = Missing Value Source: NWS Daily Summary

Daily Weather History Graph

Daily Weather History Graph

Search for Another Location

Airport or City:

Trip Planner

Search our weather history database for the weather conditions in past years. The results will help you decide how hot, cold, wet, or windy it might be!

Date:

Astronomy

Apr. 11, 2013 Rise Set
Actual Time 6:27 AM CDT 7:22 PM CDT
Civil Twilight 6:02 AM CDT 7:47 PM CDT
Nautical Twilight 5:32 AM CDT 8:17 PM CDT
Astronomical Twilight 5:01 AM CDT 8:48 PM CDT
Moon 7:03 AM CDT (4/11) 8:50 PM CDT (4/11)
Length of Visible Light 13h 44m
Length of Day
12h 54m
New Moon, 2% of the Moon is Illuminated
Apr 11
New Moon
Apr 18
First Quarter
Apr 25
Full
May 2
Last Quarter
May 9
New

Hourly Weather History & Observations

Time (CDT) Temp. Dew Point Humidity Pressure Visibility Wind Dir Wind Speed Gust Speed Precip Events Conditions
12:58 AM 72.5 °F 63.1 °F 72% 29.83 in 10.0 mi SSW 9.2 mph 26.5 mph N/A   Clear
1:58 AM 71.2 °F 63.3 °F 76% 29.80 in 10.0 mi South 15.0 mph 23.0 mph N/A   Clear
2:58 AM 70.2 °F 63.1 °F 78% 29.81 in 10.0 mi SSW 8.1 mph - N/A   Clear
3:33 AM 69.8 °F 62.6 °F 78% 29.80 in 10.0 mi SSW 8.1 mph - N/A   Mostly Cloudy
3:58 AM 69.4 °F 63.1 °F 80% 29.81 in 10.0 mi South 6.9 mph - N/A   Mostly Cloudy
4:03 AM 69.8 °F 62.6 °F 78% 29.79 in 10.0 mi South 5.8 mph - N/A   Mostly Cloudy
4:08 AM 69.8 °F 62.6 °F 78% 29.79 in 10.0 mi South 8.1 mph - N/A   Mostly Cloudy
4:53 AM 68.0 °F 62.6 °F 83% 29.77 in 10.0 mi South 8.1 mph - N/A   Mostly Cloudy
4:58 AM 68.5 °F 63.1 °F 83% 29.78 in 10.0 mi South 9.2 mph - N/A   Mostly Cloudy
5:03 AM 68.0 °F 62.6 °F 83% 29.77 in 10.0 mi South 10.4 mph - N/A   Mostly Cloudy
5:08 AM 68.0 °F 62.6 °F 83% 29.77 in 10.0 mi South 8.1 mph - N/A   Mostly Cloudy
5:13 AM 68.0 °F 62.6 °F 83% 29.77 in 10.0 mi South 11.5 mph - N/A   Overcast
5:58 AM 69.1 °F 63.5 °F 82% 29.76 in 10.0 mi South 15.0 mph 21.9 mph N/A   Overcast
6:38 AM 69.8 °F 64.4 °F 83% 29.75 in 10.0 mi South 12.7 mph - N/A   Mostly Cloudy
6:43 AM 69.8 °F 64.4 °F 83% 29.75 in 10.0 mi South 15.0 mph 18.4 mph N/A   Mostly Cloudy
6:48 AM 68.0 °F 64.4 °F 88% 29.75 in 10.0 mi South 10.4 mph 19.6 mph N/A   Mostly Cloudy
6:58 AM 68.7 °F 63.9 °F 84% 29.75 in 10.0 mi South 12.7 mph 18.4 mph N/A   Scattered Clouds
7:18 AM 69.8 °F 64.4 °F 83% 29.76 in 10.0 mi South 11.5 mph - N/A   Mostly Cloudy
7:23 AM 69.8 °F 64.4 °F 83% 29.76 in 10.0 mi South 12.7 mph - N/A   Mostly Cloudy
7:58 AM 69.6 °F 64.8 °F 84% 29.75 in 10.0 mi South 12.7 mph 21.9 mph N/A   Overcast
8:43 AM 71.6 °F 64.4 °F 78% 29.74 in 10.0 mi South 13.8 mph 23.0 mph N/A   Mostly Cloudy
8:58 AM 72.1 °F 64.9 °F 78% 29.73 in 10.0 mi South 15.0 mph 21.9 mph N/A   Mostly Cloudy
9:08 AM 73.4 °F 64.4 °F 73% 29.73 in 10.0 mi South 19.6 mph 25.3 mph N/A   Scattered Clouds
9:48 AM 73.4 °F 64.4 °F 73% 29.73 in 10.0 mi South 21.9 mph 29.9 mph N/A   Mostly Cloudy
9:58 AM 72.7 °F 65.1 °F 77% 29.73 in 10.0 mi South 16.1 mph 31.1 mph N/A   Mostly Cloudy
10:08 AM 73.4 °F 66.2 °F 78% 29.73 in 10.0 mi South 18.4 mph 24.2 mph N/A   Scattered Clouds
10:23 AM 73.4 °F 66.2 °F 78% 29.73 in 10.0 mi South 17.3 mph 23.0 mph N/A   Mostly Cloudy
10:28 AM 73.4 °F 66.2 °F 78% 29.72 in 10.0 mi South 13.8 mph - N/A   Mostly Cloudy
10:58 AM 74.1 °F 66.0 °F 76% 29.72 in 10.0 mi South 15.0 mph 25.3 mph N/A   Mostly Cloudy
11:28 AM 75.2 °F 66.2 °F 73% 29.69 in 10.0 mi South 15.0 mph 25.3 mph N/A   Mostly Cloudy
11:53 AM 73.4 °F 66.2 °F 78% 29.68 in 10.0 mi South 16.1 mph 20.7 mph N/A   Mostly Cloudy
11:58 AM 74.1 °F 66.0 °F 76% 29.69 in 10.0 mi South 13.8 mph 20.7 mph N/A   Overcast
12:06 PM 73.4 °F 66.2 °F 78% 29.67 in 10.0 mi South 16.1 mph 24.2 mph N/A Rain , Thunderstorm Light Rain
12:15 PM 73.4 °F 68.0 °F 83% 29.66 in 6.0 mi South 12.7 mph 23.0 mph N/A Thunderstorm Haze
12:24 PM 71.6 °F 68.0 °F 88% 29.67 in 6.0 mi South 10.4 mph 18.4 mph N/A Thunderstorm Overcast
12:26 PM 71.6 °F 68.0 °F 88% 29.67 in 6.0 mi South 10.4 mph 18.4 mph N/A Rain , Thunderstorm Light Thunderstorms and Rain
12:27 PM 71.6 °F 68.0 °F 88% 29.67 in 6.0 mi South 11.5 mph 18.4 mph N/A Thunderstorm Overcast
12:28 PM 71.6 °F 68.0 °F 88% 29.67 in 5.0 mi South 10.4 mph 18.4 mph N/A Rain , Thunderstorm Light Thunderstorms and Rain
12:30 PM 71.6 °F 68.0 °F 88% 29.67 in 3.0 mi South 10.4 mph 18.4 mph N/A Rain , Thunderstorm Light Thunderstorms and Rain
12:35 PM 71.6 °F 68.0 °F 88% 29.66 in 1.2 mi SSW 6.9 mph - N/A Rain , Thunderstorm Heavy Thunderstorms and Rain
12:40 PM 69.8 °F 69.8 °F 100% 29.66 in 1.5 mi SW 4.6 mph - N/A Rain , Thunderstorm Light Thunderstorms and Rain
12:45 PM 69.8 °F 69.8 °F 100% 29.68 in 4.0 mi NW 17.3 mph 26.5 mph N/A Rain , Thunderstorm Light Thunderstorms and Rain
12:50 PM 68.0 °F 64.4 °F 88% 29.68 in 1.8 mi NW 15.0 mph 26.5 mph N/A Rain , Thunderstorm Heavy Thunderstorms and Rain
12:52 PM 66.2 °F 62.6 °F 88% 29.67 in 1.0 mi NW 25.3 mph 35.7 mph N/A Rain Heavy Rain
12:53 PM 66.2 °F 62.6 °F 88% 29.67 in 1.0 mi NW 23.0 mph 35.7 mph N/A Rain Heavy Rain
12:58 PM 63.9 °F 61.9 °F 93% 29.70 in 0.8 mi NW 11.5 mph 35.7 mph 0.32 in Rain , Thunderstorm Heavy Rain
1:03 PM 62.6 °F 60.8 °F 94% 29.69 in 0.8 mi NNW 10.4 mph 20.7 mph N/A Rain , Thunderstorm Heavy Rain
1:08 PM 62.6 °F 60.8 °F 94% 29.69 in 1.0 mi NW 12.7 mph 20.7 mph N/A Rain , Thunderstorm Heavy Rain
1:18 PM 60.8 °F 60.8 °F 100% 29.69 in 1.2 mi North 12.7 mph 24.2 mph N/A Rain , Thunderstorm Heavy Rain
1:23 PM 60.8 °F 60.8 °F 100% 29.69 in 1.8 mi North 9.2 mph 20.7 mph N/A Rain , Thunderstorm Heavy Rain
1:28 PM 60.8 °F 60.8 °F 100% 29.70 in 2.0 mi NNW 8.1 mph 17.3 mph N/A Rain Heavy Rain
1:33 PM 60.8 °F 60.8 °F 100% 29.69 in 4.0 mi North 6.9 mph - N/A Rain Light Rain
1:38 PM 60.8 °F 60.8 °F 100% 29.68 in 8.0 mi North 15.0 mph 17.3 mph N/A Rain Light Rain
1:43 PM 60.8 °F 60.8 °F 100% 29.69 in 10.0 mi NNW 5.8 mph 17.3 mph N/A Rain Light Rain
1:58 PM 60.8 °F 59.0 °F 94% 29.72 in 7.0 mi NNW 10.4 mph - 0.42 in Rain Rain
2:08 PM 60.8 °F 59.0 °F 94% 29.71 in 4.0 mi NNW 16.1 mph - N/A Rain Heavy Rain
2:13 PM 60.8 °F 59.0 °F 94% 29.74 in 4.0 mi NNW 10.4 mph - N/A Rain Light Rain
2:18 PM 60.8 °F 59.0 °F 94% 29.73 in 5.0 mi NNW 10.4 mph - N/A Rain Light Rain
2:23 PM 60.8 °F 59.0 °F 94% 29.73 in 2.5 mi North 11.5 mph 17.3 mph N/A Rain Heavy Rain
2:28 PM 60.8 °F 59.0 °F 94% 29.73 in 2.5 mi NNW 11.5 mph 19.6 mph N/A Rain Heavy Rain
2:38 PM 60.8 °F 59.0 °F 94% 29.71 in 3.0 mi North 9.2 mph - N/A Rain Heavy Rain
2:43 PM 60.8 °F 59.0 °F 94% 29.71 in 4.0 mi North 6.9 mph - N/A Rain Heavy Rain
2:48 PM 60.8 °F 59.0 °F 94% 29.72 in 4.0 mi North 3.5 mph - N/A Rain Heavy Rain
2:53 PM 59.0 °F 59.0 °F 100% 29.71 in 3.0 mi North 5.8 mph - N/A Rain Rain
2:58 PM 59.9 °F 59.0 °F 97% 29.71 in 4.0 mi North 9.2 mph - 0.26 in Rain Heavy Rain
3:03 PM 60.8 °F 59.0 °F 94% 29.69 in 4.0 mi North 2.3 mph - N/A Rain Heavy Rain
3:08 PM 60.8 °F 59.0 °F 94% 29.69 in 4.0 mi NNE 4.6 mph - N/A Rain Heavy Rain
3:15 PM 59.0 °F 59.0 °F 100% 29.68 in 4.0 mi NE 5.8 mph - N/A Rain Heavy Rain
3:20 PM 59.0 °F 59.0 °F 100% 29.67 in 4.0 mi NNE 6.9 mph - N/A Rain Heavy Rain
3:25 PM 59.0 °F 59.0 °F 100% 29.68 in 5.0 mi North 2.3 mph - N/A Rain Rain
3:35 PM 59.0 °F 59.0 °F 100% 29.68 in 6.0 mi NNW 8.1 mph - N/A Rain Rain
3:40 PM 59.0 °F 59.0 °F 100% 29.69 in 5.0 mi NNW 5.8 mph - N/A Rain Rain
3:41 PM 59.0 °F 59.0 °F 100% 29.69 in 5.0 mi NW 5.8 mph - N/A Rain , Thunderstorm Thunderstorms and Rain
3:46 PM 59.0 °F 59.0 °F 100% 29.69 in 4.0 mi NW 3.5 mph - N/A Rain , Thunderstorm Thunderstorms and Rain
3:51 PM 59.0 °F 59.0 °F 100% 29.69 in 5.0 mi NNW 8.1 mph - N/A Rain , Thunderstorm Thunderstorms and Rain
3:56 PM 59.0 °F 57.2 °F 94% 29.69 in 7.0 mi NNW 8.1 mph - N/A Rain , Thunderstorm Light Rain
3:58 PM 59.0 °F 57.2 °F 94% 29.70 in 8.0 mi North 6.9 mph - 0.18 in Rain , Thunderstorm Light Rain
4:33 PM 59.0 °F 59.0 °F 100% 29.61 in 9.0 mi East 4.6 mph - N/A Rain Light Rain
4:47 PM 59.0 °F 59.0 °F 100% 29.62 in 10.0 mi Calm Calm - N/A   Overcast
4:54 PM 59.0 °F 59.0 °F 100% 29.62 in 10.0 mi Calm Calm - N/A   Overcast
4:58 PM 59.5 °F 59.2 °F 99% 29.63 in 10.0 mi NNE 1.2 mph - 0.03 in   Overcast
5:27 PM 60.8 °F 59.0 °F 94% 29.62 in 10.0 mi Calm Calm - N/A Rain Light Rain
5:39 PM 60.8 °F 60.8 °F 100% 29.66 in 10.0 mi West 6.9 mph - N/A   Mostly Cloudy
5:54 PM 60.8 °F 60.8 °F 100% 29.65 in 10.0 mi WNW 10.4 mph - N/A   Overcast
5:58 PM 60.3 °F 60.3 °F 100% 29.67 in 10.0 mi WNW 10.4 mph - 0.00 in   Overcast
6:08 PM 60.8 °F 60.8 °F 100% 29.67 in 10.0 mi WNW 9.2 mph - N/A   Overcast
6:13 PM 60.8 °F 60.8 °F 100% 29.67 in 10.0 mi WNW 11.5 mph - N/A   Overcast
6:28 PM 59.0 °F 59.0 °F 100% 29.68 in 10.0 mi WNW 9.2 mph 18.4 mph N/A   Overcast
6:38 PM 59.0 °F 57.2 °F 94% 29.71 in 10.0 mi WNW 16.1 mph 21.9 mph N/A   Light Drizzle
6:51 PM 57.2 °F 57.2 °F 100% 29.71 in 6.0 mi WNW 11.5 mph 20.7 mph N/A   Overcast
6:58 PM 57.7 °F 57.2 °F 98% 29.71 in 10.0 mi WNW 8.1 mph 19.6 mph 0.00 in   Overcast
7:13 PM 57.2 °F 57.2 °F 100% 29.71 in 10.0 mi WNW 15.0 mph 21.9 mph N/A   Overcast
7:38 PM 55.4 °F 55.4 °F 100% 29.71 in 10.0 mi WNW 8.1 mph - N/A   Overcast
7:58 PM 55.9 °F 55.6 °F 99% 29.72 in 10.0 mi NW 9.2 mph - N/A   Overcast
8:13 PM 55.4 °F 53.6 °F 94% 29.71 in 10.0 mi NW 11.5 mph 19.6 mph N/A   Overcast
8:18 PM 55.4 °F 53.6 °F 94% 29.72 in 10.0 mi NW 8.1 mph - N/A   Overcast
8:28 PM 55.4 °F 53.6 °F 94% 29.71 in 10.0 mi NW 13.8 mph - N/A   Overcast
8:53 PM 55.4 °F 53.6 °F 94% 29.72 in 10.0 mi NW 15.0 mph - N/A   Overcast
8:58 PM 54.5 °F 52.9 °F 94% 29.73 in 10.0 mi WNW 15.0 mph - N/A   Overcast
9:18 PM 53.6 °F 51.8 °F 94% 29.74 in 10.0 mi WNW 10.4 mph 21.9 mph N/A   Overcast
9:38 PM 53.6 °F 51.8 °F 94% 29.74 in 10.0 mi WNW 13.8 mph - N/A   Overcast
9:58 PM 53.2 °F 51.1 °F 92% 29.79 in 10.0 mi WNW 13.8 mph 21.9 mph N/A   Overcast
10:53 PM 51.8 °F 50.0 °F 94% 29.80 in 10.0 mi NW 12.7 mph 18.4 mph N/A   Overcast
10:58 PM 51.6 °F 49.1 °F 91% 29.81 in 10.0 mi NW 11.5 mph 18.4 mph N/A   Overcast
11:58 PM 50.9 °F 47.8 °F 89% 29.82 in 10.0 mi NW 10.4 mph 18.4 mph N/A   Overcast